Terminal Aerodrome Forecast
Issued by NWS

Home | Current Version | Previous Version | Text Only | Print | Product List | Glossary Off
Versions: 1 2 3 4 5 6 7 8 9 10 11 12 13 14 15 16 17 18

151
FTUS43 KTOP 161720
TAFFOE
TAF
KFOE 161720Z 1618/1718 VRB06KT 4SM BR VCSH OVC003
     FM170500 29010KT 5SM BR OVC005=

USA.gov is the U.S. government's official web portal to all federal, state and local government web resources and services.